Regional Weather Roundup
Issued by NWS

Home | Current Version | Previous Version | Text Only | Print | Product List | Glossary Off
Versions: 1 2 3 4 5 6 7 8 9 10 11 12 13 14 15 16 17 18 19 20 21 22 23 24 25 26 27 28 29 30 31 32 33 34 35 36 37 38 39 40 41 42 43 44 45 46 47 48 49 50

306
ASUS43 KDTX 091510
RWRMI
MICHIGAN HOURLY REGIONAL WEATHER ROUNDUP
NATIONAL WEATHER SERVICE DETROIT/PONTIAC MI
1000 AM EST TUE FEB 09 2016

NOTE: "FAIR" INDICATES FEW OR NO CLOUDS BELOW 12,000 FEET WITH NO
SIGNIFICANT WEATHER AND/OR OBSTRUCTION TO VISIBILITY.

MIZ047>049-052>055-059>063-066>070-074>076-081>083-091600-
SOUTHEAST LOWER MICHIGAN

CITY           SKY/WX    TMP DP  RH WIND       PRES   REMARKS
ADRIAN         LGT SNOW  30  27  88 NW7       29.60S FOG     WCI  23
ALMA           CLOUDY    27  22  84 NW14G20   29.62F WCI  15
ANN ARBOR      LGT SNOW  29  25  85 NW8       29.58S FOG     WCI  21
BAD AXE        LGT SNOW  28  26  94 NW12      29.52S VSB 1   WCI  18
CARO           CLOUDY    27  25  93 W10       29.55S VSB 1/2 WCI  17
DETROIT CITY   LGT SNOW  30  26  85 NW8       29.57R FOG     WCI  22
DETROIT        LGT SNOW  31  27  85 NW10      29.59R VSB 1   WCI  22
FLINT          LGT SNOW  28  23  81 NW15      29.58S VSB 1   WCI  16
GROSSE ILE     LGT SNOW  32  28  86 W10       29.57S WCI  24
HILLSDALE      CLOUDY    28  24  87 NW17      29.60R WCI  15
HOWELL         LGT SNOW  27  25  91 NW9G16    29.59R WCI  18

CITY           SKY/WX    TMP DP  RH WIND       PRES   REMARKS
JACKSON        LGT SNOW  26  22  84 NW13G23   29.61R FOG     WCI  15
LAMBERTVILLE   LGT SNOW  30  28  93 W7        29.61R VSB 3/4 WCI  23
LANSING        CLOUDY    25  20  81 NW12      29.63R WCI  14
LAPEER         LGT SNOW  27  26  94 W9G20     29.55S WCI  18
MASON          LGT SNOW  27  24  88 NW7       29.61R WCI  19
MONROE         LGT SNOW  31  29  93 W7        29.59R VSB 1   WCI  24
MT. CLEMENS    LGT SNOW  29  27  92 W13       29.54R FOG     WCI  19
PONTIAC        LGT SNOW  27  24  89 W10       29.55R FOG     WCI  17
PORT HOPE        N/A     30  28  92 NW22G29   29.49R WCI  17
PORT HURON     LGT SNOW  28  27  93 W9G18     29.53R VSB 1   WCI  20
TRI CITIES     LGT SNOW  28  23  81 W17       29.59S VSB 3/4 WCI  16
MIDLAND        LGT SNOW  27  24  89 NW10G16   29.59S WCI  17
TROY           LGT SNOW  30  26  86 W12       29.58R WCI  20
SAGINAW HB     LGT SNOW  28  27  93 W14       29.57F VSB 3/4 WCI  17
$$
MIZ043>046-050>051-056>058-064>065-071>073-077>080-091600-
SOUTHWEST LOWER MICHIGAN

CITY           SKY/WX    TMP DP  RH WIND       PRES   REMARKS
BATTLE CREEK   CLOUDY    26  20  77 NW17      29.64S WCI  13
BENTON HARBOR  LGT SNOW  27  20  75 NW12G21   29.72S WCI  17
BIG RAPIDS     CLOUDY    24  22  93 NW10G16   29.63S WCI  13
COLDWATER      CLOUDY    27  22  82 NW9G20    29.64R WCI  18
FREMONT        CLOUDY    25  20  83 NW10G16   29.68R WCI  14
HOLLAND        LGT SNOW  26  21  81 N9        29.70R WCI  17
GRAND RAPIDS   FLURRIES  26  21  81 NW14      29.66S WCI  14
IONIA          CLOUDY    25  20  80 NW8       29.63S WCI  17
KALAMAZOO      CLOUDY    27  19  72 NW21      29.66R WCI  13
LUDINGTON      LGT SNOW  23  20  87 NW13G20   29.71R WCI  11
MARSHALL       CLOUDY    26  22  83 W10       29.63R WCI  16
MOUNT PLEASANT CLOUDY    27  21  77 NW10G18   29.61S WCI  18
MUSKEGON       CLOUDY    26  17  68 NW14      29.71R WCI  14
SOUTH HAVEN    CLOUDY    27  22  83 NW13G24   29.71S FOG     WCI  16
$$
MIZ016>042-091600-
NORTHERN LOWER MICHIGAN

CITY           SKY/WX    TMP DP  RH WIND       PRES   REMARKS
ALPENA         LGT SNOW  27  22  81 NW10G23   29.56S WCI  17
BEAVER ISLAND  CLOUDY    23  20  89 NW13G18   29.66S WCI  11
BELLAIRE       LGT SNOW  25  21  83 N3        29.66S
CADILLAC       CLOUDY    24  20  85 NW15G22   29.60S WCI  11
CHARLEVOIX     LGT SNOW  25  22  86 NW13      29.68S WCI  14
FRANKFORT      FLURRIES  24  19  81 NW8G16    29.70S WCI  15
GAYLORD        LGT SNOW  23  19  85 NW10G18   29.58S FOG     WCI  12
GRAYLING       LGT SNOW  24  19  82 W10G18    29.59F WCI  13
HARBOR SPRINGS LGT SNOW  25  21  86 W9        29.63S WCI  15
HOUGHTON LAKE  FLURRIES  24  19  81 NW16G22   29.59S WCI  11
MANISTEE       CLOUDY    25  18  74 N13G18    29.70S WCI  13
OSCODA         LGT SNOW  26  24  92 NW16      29.52S VSB 1   WCI  14
PELLSTON       LGT SNOW  25  22  88 NW14      29.62S FOG     WCI  13
ROGERS CITY    LGT SNOW  27  24  89 NW10      29.58S WCI  18
TRAVERSE CITY  FLURRIES  26  19  74 N15G23    29.66S WCI  14
$$
MIZ007>008-015-091600-
EASTERN UPPER MICHIGAN

CITY           SKY/WX    TMP DP  RH WIND       PRES   REMARKS
KINROSS        CLOUDY    27  27 100 W13       29.59S WCI  16
MACKINAC ISLAN FLURRIES  25  25 100 NW10      29.60S WCI  15
NEWBERRY       CLOUDY    21  19  94 N13G22    29.64S WCI   8
S. S. MARIE    CLOUDY    27  21  78 NE6       29.60R WCI  20
MUNISING         N/A     19  13  77 N25G31    29.73R WCI   1
$$
MIZ004>006-011>014-085-091600-
CENTRAL UPPER MICHIGAN

CITY           SKY/WX    TMP DP  RH WIND       PRES   REMARKS
MANISTIQUE     FLURRIES  20  14  75 N18G25    29.68S WCI   5
ESCANABA       CLOUDY    18   9  68 NW16G22   29.74F WCI   3
MENOMINEE      CLOUDY    14   5  67 NW15G22   29.78S WCI  -1
SAWYER-GWINN   LGT SNOW  12   9  85 N18G25    29.72S VSB 3/4 WCI  -5
$$
MIZ001>003-009>011-084-091600-
WESTERN UPPER MICHIGAN

CITY           SKY/WX    TMP DP  RH WIND       PRES   REMARKS
IRON MOUNTAIN  LGT SNOW  11   3  70 NW17G24   29.77R VSB 3/4 WCI  -6
HOUGHTON       CLOUDY    11   4  73 N16G24    29.84S HAZE    WCI  -6
COPPER HARBOR    N/A     17  14  88 NE25G38   29.84R WCI  -1
IRONWOOD       CLOUDY    10   7  85 N16G23    29.89R VSB 1   WCI  -7
$$

ABBREVIATIONS USED IN REMARKS
   TC - TEMPERATURE IN CELSIUS
  WCI - WIND CHILL INDEX
   HX - HEAT INDEX
  VSB - VISIBILITY





USA.gov is the U.S. government's official web portal to all federal, state and local government web resources and services.